User: anonymous   Login
Location: Sun City Center
(27.6996°N, 82.3528°W)
Time: 21:23:21
(UTC-04:00)
Language:

Cosmos 2084 Rocket - Orbit

View from above orbital plane
View from above orbital plane
View from above satellite
View from above satellite

Ground track
Ground track

The orbit data is extracted from the following two-line orbital elements,

1 20666U 90055D   15215.53116541  .00000444  00000-0  58531-4 0  9997
2 20666 062.7850 269.1619 0107908 040.4780 320.4277 14.91005852359201
Epoch (UTC): 03 August 2015 12:44:52
Eccentricity: 0.0107908
inclination: 62.7850°
perigee height: 519 km
apogee height: 670 km
right ascension of ascending node: 269.1619°
argument of perigee: 40.4780°
revolutions per day: 14.91005852
mean anomaly at epoch: 320.4277°
orbit number at epoch: 35920

The dashed part of the orbit path shows where the satellite is in the earth's shadow,  

DLR